Aérodrome :
LOGIN :

S'inscrire | Disclaimer

   EN    FR    IT 

 










Légende :    VFR   VFR Marginal   IFR   IFR Intensif   IFR Très Intensif
Visi : 
Plafond : 
>= 8 km
>= 3000ft
5 à 8 km
1000 à 3000 ft
1500m à 5 km
500 à 1000 ft
800 à 1500m
200 à 500 ft
< 800m
< 200 ft
Symboles :   Orages  Brouillard  Fortes neiges  Fortes précipitations  Vent > 20 kt
SIGMETs :   Divers  Orages  Givrage  Turbulence  Onde Orograph.  Cendres Volcan.







- Altitude de l'aérodrome : 291 ft
- Code IATA : ORY
- Voir les cartes d'approche


LFPO - Paris-Orly

DERNIER METAR :
  • 172300Z 23001KT CAVOK 00/M00 Q1025 NOSIG

METARs EXPIRÉS :
  • 172230Z 24003KT CAVOK 00/M01 Q1025 NOSIG
  • 172200Z VRB02KT CAVOK 01/00 Q1025 NOSIG
  • 172130Z VRB02KT CAVOK 02/M00 Q1025 NOSIG
  • 172100Z 23004KT CAVOK 03/01 Q1024 NOSIG
  • 172030Z 15003KT 110V230 CAVOK 02/01 Q1024 NOSIG
  • 172000Z VRB02KT CAVOK 02/01 Q1024 NOSIG

TAF TAF LFPO
Valide du 17 à 18h jusqu'au 19 à 00h UTC


171700Z 1718/1824 VRB02KT 9999 SCT030
TEMPO 1721/1802 3000 MIFG
PROB40
TEMPO 1802/1810 0400 FG VV///
BECMG 1810/1812 16005KT
PROB30
TEMPO 1810/1812 2500 BR BKN004
TEMPO 1821/1824 3000 MIFG
ATIS : +33 1 49 75 65 80
Pas de NOTAMs connus pour ce terrain.



MET'MAP, la Météo Aéronautique d'un coup d'oeil ! - Copyright ORBIFLY Décembre 2007 - Disclaimer

ORBIFLY MET'MAP TEAM :

Programmation & Développement : Alexandra Zaïnal
Conception & Développement : Baudouin d'Aumeries
Co-Programmation & Développement : Marc-Olivier Méhu
Soutien technique & logistique : Manuel Goepfert

Contact : metmap@orbifly.com




SOURCES & CREDITS :

   NOAA